650  
ASUS44 KLCH 272310  
RWRLCH  
REGIONAL WEATHER ROUNDUP  
NATIONAL WEATHER SERVICE LAKE CHARLES LA  
500 PM CST WED JAN 27 2021  
 
NOTE: "FAIR" INDICATES FEW OR NO CLOUDS BELOW 12,000 FEET WITH NO  
SIGNIFICANT WEATHER AND/OR S TO VISIBILITY
.  
 
ACROSS SOUTHEAST TEXAS  
 
CITY SKY/WX TMP DP RH WIND PRES REMARKS
 
BEAUMONT PTCLDY 63 29 27 N17G25 30.22R  
BEAUMONT CITY FAIR 64 28 25 N18G28 30.24R  
ORANGE MOCLDY 64 23 20 N10G22 30.25R  
JASPER PTCLDY 61 36 38 NW13 30.30R  

 
 
ACROSS CENTRAL LOUISIANA  
 
CITY SKY/WX TMP DP RH WIND PRES REMARKS
 
LEESVILLE NOT AVBL  
FULLERTON HVY RAIN 60 31 33 VRB3 30.22R  
ALEXANDRIA INT MOCLDY 56 40 55 NW13G23 30.23R  
ESLER FIELD PTCLDY 61 33 35 MISG 30.24R  
DERIDDER FAIR 60 35 38 NW13G18 30.27R HAZE  
OAKDALE MOCLDY 63 36 36 N10 30.23R  
OPELOUSAS FAIR 61 37 41 N10 30.22R  

 
 
ACROSS SOUTHWEST AND SOUTH CENTRAL LOUISIANA  
 
CITY SKY/WX TMP DP RH WIND PRES REMARKS
 
DEQUINCY FAIR 62 34 34 N7 30.24R  
SULPHUR PTCLDY 65 34 31 N12G20 30.23R  
LAKE CHARLES PTCLDY 62 31 31 N17G30 30.23R  
CHENNAULT INT CLEAR 63 28 27 N18G28 30.23R  
JENNINGS FAIR 63 36 37 N13 30.22R  
LAFAYETTE PTCLDY 63 36 36 N17G25 30.20R  
NEW IBERIA PTCLDY 63 39 41 N17G35 30.20R  
ABBEVILLE FAIR 63 32 31 NW14G25 30.21R  
PATTERSON PTCLDY 66 42 41 N12 30.18R  
SALT POINT N/A 66 42 41 N9 30.17R  

 
 
SELECTED SITES ACROSS THE REGION  
 
CITY SKY/WX TMP DP RH WIND PRES REMARKS
 
HOUSTON BUSH MOCLDY 64 28 25 N15G24 30.27R  
HOUSTON HOBBY PTSUNNY 65 27 23 N18 30.25R  
GALVESTON PTCLDY 66 33 29 N21G26 30.25R  
COLLEGE STAT MOSUNNY 59 32 36 N18 30.32R  
CONROE MOCLDY 61 30 31 N8G18 30.29R  
HUNTSVILLE PTCLDY 59 34 39 N8G18 30.31R  
LUFKIN PTCLDY 59 33 37 N8 30.30R  
SHREVEPORT MOCLDY 55 31 39 NW15 30.31R  
MONROE PTCLDY 57 38 48 N15 30.28R  
NATCHEZ MS PTCLDY 56 42 59 N9 30.25R  
BATON ROUGE PTCLDY 61 41 47 N14G24 30.21R  
N.O. INTL ARPT MOCLDY 65 50 58 N12 30.16R  
SLIDELL PTCLDY 64 46 52 N13G22 30.16R  

 
 
MARINE REPORTS  
 
STATION/POSITION TIME SKY/WX TEMP WIND PRES VSBY
 
AIR SEA DIR/SP/G  
(UTC) (F) (DEG/KT/KT) (MB) (MI)  
BUOY 30 S HIGH I 2250 62 58 350/ 16/ 17 1022.9R  
SEA RIM ST PARK NOT AVBL  
PORT ARTHUR NOT AVBL  
TEXAS POINT NOT AVBL  
CALCASIEU PASS NOT AVBL  
LK CHARLES BEACH NOT AVBL  
MARSH ISLAND NOT AVBL  
FRESH WATER LOCK NOT AVBL  
AMERADA PASS NOT AVBL  

 
 
 
CLICK HERE TO GO TO PREVIOUS BULLETINS.

The Nexlab LA Page
The Nexlab TX Page Main Text Page